• In Hungary
  • List of Countries
  • For 7 days
  • Water Temperature
  • Satellite Maps
  • Weather Map
  • News
  • Weather Widgets
  • user-avatar
    Login

    Hourly Weather Madaba

    Today, 21 September, Thursday

    Time Temperature Precipitation Wind Pressure Humidity
    00:00 +23°C° 0 mm 2 mps 696 mmHg 56%
    01:00 +23°C° 0 mm 2 mps 696 mmHg 58%
    02:00 +21°C° 0 mm 2 mps 696 mmHg 66%
    03:00 +21°C° 0 mm 2 mps 696 mmHg 66%
    04:00 +21°C° 0 mm 2 mps 696 mmHg 66%
    05:00 +20°C° 0 mm 2 mps 696 mmHg 66%
    06:00 +23°C° 0 mm 2 mps 696 mmHg 58%
    07:00 +24°C° 0 mm 2 mps 697 mmHg 50%
    08:00 +26°C° 0 mm 2 mps 697 mmHg 40%
    09:00 +27°C° 0 mm 2 mps 697 mmHg 35%
    10:00 +29°C° 0 mm 3 mps 697 mmHg 30%
    11:00 +31°C° 0 mm 3 mps 697 mmHg 25%
    12:00 +31°C° 0 mm 3 mps 697 mmHg 24%
    13:00 +33°C° 0 mm 4 mps 697 mmHg 23%
    14:00 +34°C° 0 mm 4 mps 696 mmHg 24%
    15:00 +33°C° 0 mm 4 mps 696 mmHg 26%
    16:00 +32°C° 0 mm 4 mps 696 mmHg 28%
    17:00 +32°C° 0 mm 5 mps 696 mmHg 31%
    18:00 +30°C° 0 mm 4 mps 696 mmHg 36%
    19:00 +28°C° 0 mm 4 mps 696 mmHg 42%
    20:00 +27°C° 0 mm 3 mps 696 mmHg 48%
    21:00 +26°C° 0 mm 3 mps 696 mmHg 52%
    22:00 +26°C° 0 mm 3 mps 696 mmHg 56%
    23:00 +25°C° 0 mm 2 mps 696 mmHg 60%

    Tomorrow, 22 September, Friday

    Time Temperature Precipitation Wind Pressure Humidity
    00:00 +24°C° 0 mm 2 mps 696 mmHg 63%
    01:00 +24°C° 0 mm 2 mps 696 mmHg 65%
    02:00 +23°C° 0 mm 2 mps 696 mmHg 67%
    03:00 +23°C° 0 mm 2 mps 696 mmHg 69%
    04:00 +23°C° 0 mm 2 mps 696 mmHg 71%
    05:00 +21°C° 0 mm 2 mps 696 mmHg 73%
    06:00 +23°C° 0 mm 2 mps 697 mmHg 68%
    07:00 +25°C° 0 mm 3 mps 697 mmHg 62%
    08:00 +26°C° 0 mm 3 mps 698 mmHg 57%
    09:00 +27°C° 0 mm 3 mps 698 mmHg 49%
    10:00 +29°C° 0 mm 3 mps 698 mmHg 42%
    11:00 +32°C° 0 mm 4 mps 698 mmHg 34%
    12:00 +33°C° 0 mm 4 mps 698 mmHg 32%
    13:00 +33°C° 0 mm 4 mps 698 mmHg 29%
    14:00 +34°C° 0 mm 5 mps 697 mmHg 27%
    15:00 +33°C° 0 mm 5 mps 697 mmHg 30%
    16:00 +32°C° 0 mm 5 mps 697 mmHg 33%
    17:00 +30°C° 0 mm 5 mps 697 mmHg 37%
    18:00 +29°C° 0 mm 4 mps 697 mmHg 43%
    19:00 +27°C° 0 mm 4 mps 697 mmHg 49%
    20:00 +26°C° 0 mm 4 mps 697 mmHg 55%
    21:00 +25°C° 0 mm 3 mps 697 mmHg 58%
    22:00 +24°C° 0 mm 3 mps 697 mmHg 62%
    23:00 +24°C° 0 mm 3 mps 697 mmHg 65%

    Day after tomorrow, 23 September, Saturday

    Time Temperature Precipitation Wind Pressure Humidity
    00:00 +22°C° 0 mm 3 mps 697 mmHg 67%
    01:00 +22°C° 0 mm 3 mps 697 mmHg 69%
    02:00 +21°C° 0 mm 2 mps 697 mmHg 71%
    03:00 +21°C° 0 mm 2 mps 697 mmHg 72%
    04:00 +20°C° 0 mm 3 mps 697 mmHg 74%
    05:00 +20°C° 0 mm 3 mps 697 mmHg 75%
    06:00 +21°C° 0 mm 2 mps 697 mmHg 70%
    07:00 +23°C° 0 mm 2 mps 698 mmHg 64%
    08:00 +24°C° 0 mm 2 mps 698 mmHg 58%
    09:00 +25°C° 0 mm 2 mps 698 mmHg 50%
    10:00 +27°C° 0 mm 2 mps 698 mmHg 43%
    11:00 +28°C° 0 mm 3 mps 698 mmHg 35%
    12:00 +29°C° 0 mm 3 mps 698 mmHg 32%
    13:00 +30°C° 0 mm 3 mps 698 mmHg 29%
    14:00 +32°C° 0 mm 4 mps 697 mmHg 26%
    15:00 +32°C° 0 mm 4 mps 697 mmHg 28%
    16:00 +30°C° 0 mm 4 mps 697 mmHg 30%
    17:00 +29°C° 0 mm 4 mps 696 mmHg 31%
    18:00 +28°C° 0 mm 4 mps 697 mmHg 36%
    19:00 +27°C° 0 mm 4 mps 697 mmHg 41%
    20:00 +26°C° 0 mm 4 mps 697 mmHg 46%
    21:00 +25°C° 0 mm 3 mps 697 mmHg 50%
    22:00 +24°C° 0 mm 3 mps 696 mmHg 53%
    23:00 +24°C° 0 mm 3 mps 696 mmHg 57%

    24 September, Sunday

    Time Temperature Precipitation Wind Pressure Humidity
    00:00 +22°C° 0 mm 3 mps 696 mmHg 58%
    01:00 +22°C° 0 mm 3 mps 696 mmHg 60%
    02:00 +21°C° 0 mm 2 mps 696 mmHg 61%
    03:00 +21°C° 0 mm 2 mps 696 mmHg 61%
    04:00 +21°C° 0 mm 2 mps 696 mmHg 61%
    05:00 +21°C° 0 mm 2 mps 695 mmHg 61%
    06:00 +22°C° 0 mm 3 mps 696 mmHg 57%
    07:00 +24°C° 0 mm 3 mps 696 mmHg 52%
    08:00 +25°C° 0 mm 3 mps 696 mmHg 47%
    09:00 +26°C° 0 mm 3 mps 696 mmHg 41%
    10:00 +28°C° 0 mm 3 mps 696 mmHg 36%
    11:00 +30°C° 0 mm 3 mps 696 mmHg 31%
    12:00 +30°C° 0 mm 4 mps 696 mmHg 30%
    13:00 +32°C° 0 mm 4 mps 696 mmHg 29%
    14:00 +33°C° 0 mm 5 mps 695 mmHg 27%
    15:00 +32°C° 0 mm 5 mps 695 mmHg 31%
    16:00 +30°C° 0 mm 5 mps 695 mmHg 35%
    17:00 +29°C° 0 mm 5 mps 695 mmHg 39%
    18:00 +27°C° 0 mm 5 mps 696 mmHg 44%
    19:00 +26°C° 0 mm 4 mps 696 mmHg 50%
    20:00 +25°C° 0 mm 4 mps 696 mmHg 55%
    21:00 +23°C° 0 mm 4 mps 696 mmHg 57%
    22:00 +24°C° 0 mm 3 mps 696 mmHg 58%
    23:00 +22°C° 0 mm 3 mps 696 mmHg 60%

    25 September, Monday

    Time Temperature Precipitation Wind Pressure Humidity
    00:00 +22°C° 0 mm 3 mps 696 mmHg 61%
    01:00 +21°C° 0 mm 3 mps 696 mmHg 62%
    02:00 +21°C° 0 mm 2 mps 695 mmHg 64%
    03:00 +21°C° 0 mm 2 mps 695 mmHg 65%
    04:00 +20°C° 0 mm 2 mps 695 mmHg 67%
    05:00 +20°C° 0 mm 2 mps 695 mmHg 68%
    06:00 +21°C° 0 mm 2 mps 696 mmHg 64%
    07:00 +23°C° 0 mm 2 mps 696 mmHg 59%
    08:00 +24°C° 0 mm 2 mps 697 mmHg 55%
    09:00 +25°C° 0 mm 2 mps 697 mmHg 49%
    10:00 +27°C° 0 mm 2 mps 697 mmHg 43%
    11:00 +28°C° 0 mm 2 mps 697 mmHg 37%
    12:00 +29°C° 0 mm 3 mps 697 mmHg 35%
    13:00 +30°C° 0 mm 3 mps 697 mmHg 32%
    14:00 +30°C° 0 mm 3 mps 696 mmHg 30%
    15:00 +30°C° 0 mm 4 mps 696 mmHg 32%
    16:00 +29°C° 0 mm 4 mps 696 mmHg 33%
    17:00 +28°C° 0 mm 4 mps 696 mmHg 35%
    18:00 +27°C° 0 mm 4 mps 696 mmHg 40%
    19:00 +26°C° 0 mm 4 mps 697 mmHg 45%
    20:00 +25°C° 0 mm 4 mps 697 mmHg 50%
    21:00 +24°C° 0 mm 3 mps 697 mmHg 53%
    22:00 +22°C° 0 mm 3 mps 696 mmHg 56%
    23:00 +22°C° 0 mm 3 mps 696 mmHg 59%

    26 September, Tuesday

    Time Temperature Precipitation Wind Pressure Humidity
    00:00 +21°C° 0 mm 3 mps 696 mmHg 61%
    01:00 +21°C° 0 mm 2 mps 696 mmHg 63%
    02:00 +20°C° 0 mm 2 mps 696 mmHg 65%
    03:00 +20°C° 0 mm 2 mps 696 mmHg 66%
    04:00 +19°C° 0 mm 2 mps 696 mmHg 67%
    05:00 +20°C° 0 mm 1 mps 696 mmHg 68%
    06:00 +20°C° 0 mm 2 mps 696 mmHg 63%
    07:00 +21°C° 0 mm 2 mps 697 mmHg 58%
    08:00 +23°C° 0 mm 2 mps 697 mmHg 53%
    09:00 +24°C° 0 mm 3 mps 697 mmHg 47%
    10:00 +26°C° 0 mm 3 mps 697 mmHg 41%
    11:00 +27°C° 0 mm 3 mps 697 mmHg 35%
    12:00 +28°C° 0 mm 4 mps 697 mmHg 32%
    13:00 +29°C° 0 mm 4 mps 697 mmHg 30%
    14:00 +29°C° 0 mm 4 mps 697 mmHg 27%
    15:00 +29°C° 0 mm 4 mps 697 mmHg 30%
    16:00 +28°C° 0 mm 4 mps 697 mmHg 32%
    17:00 +27°C° 0 mm 5 mps 697 mmHg 34%
    18:00 +26°C° 0 mm 4 mps 697 mmHg 39%
    19:00 +25°C° 0 mm 4 mps 697 mmHg 44%
    20:00 +24°C° 0 mm 3 mps 697 mmHg 49%
    21:00 +22°C° 0 mm 3 mps 697 mmHg 52%
    22:00 +21°C° 0 mm 3 mps 697 mmHg 55%
    23:00 +21°C° 0 mm 2 mps 697 mmHg 59%
    Show more